Hourly Data Report for September 13, 2015

All times are specified in Local Standard Time (LST). Add 1 hour to adjust for Daylight Saving Time where and when it is observed.

TORONTO INTL A
ONTARIO

43°40'36.000" N
79°37'50.000" W
173.40 m
6158731
71624
YYZ

Download Data

Hourly Data (September 2015)
Hourly Data Report for September 13, 2015
Temp Definition
°C
Dew Point Temp Definition
°C
Rel Hum Definition
%
Wind Dir Definition
10's deg

Wind Spd Definition
km/h
Visibility Definition
km
Stn Press Definition
kPa
Hmdx Definition


Wind Chill Definition


Weather Definition


TIME
00:00 Legend Double Dagger 12.5 9.0 79 35 24 24.1 98.74     LegendNANA
01:00 Legend Double Dagger 12.2 8.3 77 34 23 24.1 98.75     Mostly Cloudy
02:00 Legend Double Dagger 11.9 8.0 77 33 22 24.1 98.75     LegendNANA
03:00 Legend Double Dagger 11.9 7.8 76 33 26 24.1 98.73     LegendNANA
04:00 Legend Double Dagger 11.9 7.7 75 32 26 24.1 98.71     Rain
05:00 Legend Double Dagger 11.7 7.6 76 32 26 24.1 98.71     Rain
06:00 Legend Double Dagger 11.3 8.7 84 31 26 19.3 98.72     Rain
07:00 Legend Double Dagger 11.9 9.3 84 31 25 24.1 98.75     Rain
08:00 Legend Double Dagger 12.3 9.3 82 31 22 24.1 98.76     LegendNANA
09:00 Legend Double Dagger 13.1 9.9 81 32 26 24.1 98.76     LegendNANA
10:00 Legend Double Dagger 12.9 9.6 80 32 31 24.1 98.77     Rain Showers
11:00 Legend Double Dagger 13.9 9.4 74 31 33 24.1 98.79     LegendNANA
12:00 Legend Double Dagger 14.2 10.1 76 32 28 24.1 98.83     Rain Showers
13:00 Legend Double Dagger 13.9 10.4 79 30 18 24.1 98.85     Rain Showers
14:00 Legend Double Dagger 14.4 9.3 71 30 25 24.1 98.88     Rain
15:00 Legend Double Dagger 13.4 10.4 82 28 19 16.1 98.89     Rain
16:00 Legend Double Dagger 13.6 10.4 81 27 15 24.1 98.93     Rain
17:00 Legend Double Dagger 14.1 9.6 74 29 15 24.1 98.96     Rain
18:00 Legend Double Dagger 14.4 8.6 68 28 17 24.1 99.02     LegendNANA
19:00 Legend Double Dagger 14.1 7.9 66 29 22 24.1 99.06     Mostly Cloudy
20:00 Legend Double Dagger 13.6 7.4 66 29 16 24.1 99.15     LegendNANA
21:00 Legend Double Dagger 12.7 7.0 68 29 17 24.1 99.19     LegendNANA
22:00 Legend Double Dagger 11.3 6.5 72 28 17 24.1 99.22     Mainly Clear
23:00 Legend Double Dagger 10.9 6.3 73 28 17 24.1 99.25     LegendNANA

Notes on Data Quality.

Legend

  • E = Estimated
  • M = Missing
  • NA = Not Available
  • ‡ = Partner data that is not subject to review by the National Climate Archives
Date modified: